Weather History for KPSP - December, 2013

Change the Weather History Date:

Thursday, December 26, 2013

  Actual Average Record
Temperature  
Mean Temperature 66 °F 55 °F  
Max Temperature 79 °F 66 °F 84 °F (1933)
Min Temperature 52 °F 44 °F 28 °F (1987)
Degree Days  
Heating Degree Days 0 10  
Month to date heating degree days 195 243  
Since 1 July heating degree days 256 339  
Cooling Degree Days 1 0  
Month to date cooling degree days 4 0  
Year to date cooling degree days 4510 4137  
Growing Degree Days 16 (Base 50)    
Moisture  
Dew Point 21 °F    
Average Humidity 18    
Maximum Humidity 19    
Minimum Humidity 17    
Precipitation  
Precipitation 0.00 in 0.04 in 1.20 in (1927)
Month to date precipitation T 0.65  
Year to date precipitation 2.23 5.51  
Since 1 July precipitation 1.26 2.57  
Snow  
Snow 0.00 in - - ()
Month to date snowfall 0.0  
Year to date snowfall 0.0  
Since 1 July snowfall 0.0  
Snow Depth 0.00 in    
Sea Level Pressure  
Sea Level Pressure 30.22 in    
Wind  
Wind Speed 3 mph (WNW)    
Max Wind Speed 10 mph    
Max Gust Speed 13 mph    
Visibility 10 miles    
Events      
T = Trace of Precipitation, MM = Missing Value Source: NWS Daily Summary

Daily Weather History Graph

Daily Weather History Graph

Search for Another Location

Airport or City:

Trip Planner

Search our weather history database for the weather conditions in past years. The results will help you decide how hot, cold, wet, or windy it might be!

Date:

Astronomy

Dec. 26, 2013 Rise Set
Actual Time 6:49 AM PST 4:44 PM PST
Civil Twilight 6:21 AM PST 5:12 PM PST
Nautical Twilight 5:50 AM PST 5:43 PM PST
Astronomical Twilight 5:20 AM PST 6:13 PM PST
Moon 12:34 AM PST (12/26) 12:11 PM PST (12/26)
Length of Visible Light 10h 50m
Length of Day
9h 54m
Last Quarter, 37% of the Moon is Illuminated
Dec 26
Last Quarter
Jan 1
New
Jan 7
First Quarter
Jan 15
Full
Jan 23
Last Quarter

Hourly Weather History & Observations

Time (PST) Temp. Dew Point Humidity Pressure Visibility Wind Dir Wind Speed Gust Speed Precip Events Conditions
12:53 AM 57.0 °F 15.1 °F 19% 30.25 in 10.0 mi Calm Calm - N/A   Clear
1:53 AM 59.0 °F 16.0 °F 19% 30.25 in 10.0 mi Calm Calm - N/A   Clear
2:53 AM 59.0 °F 16.0 °F 19% 30.24 in 10.0 mi WSW 8.1 mph - N/A   Clear
3:53 AM 55.9 °F 14.0 °F 19% 30.24 in 10.0 mi NW 8.1 mph - N/A   Clear
4:53 AM 57.9 °F 15.1 °F 19% 30.23 in 10.0 mi West 6.9 mph - N/A   Clear
5:53 AM 57.9 °F 15.1 °F 19% 30.23 in 10.0 mi West 8.1 mph - N/A   Clear
6:53 AM 57.0 °F 14.0 °F 18% 30.25 in 10.0 mi Calm Calm - N/A   Clear
7:53 AM 57.0 °F 15.1 °F 19% 30.27 in 10.0 mi WNW 4.6 mph - N/A   Clear
8:53 AM 64.9 °F 21.9 °F 19% 30.28 in 10.0 mi WSW 3.5 mph - N/A   Clear
9:53 AM 71.1 °F 27.0 °F 19% 30.28 in 10.0 mi Calm Calm - N/A   Clear
10:53 AM 73.9 °F 28.0 °F 18% 30.26 in 10.0 mi Calm Calm - N/A   Clear
11:53 AM 73.9 °F 28.9 °F 19% 30.22 in 10.0 mi Calm Calm - N/A   Clear
12:53 PM 75.0 °F 30.0 °F 19% 30.19 in 10.0 mi Calm Calm - N/A   Clear
1:53 PM 77.0 °F 30.9 °F 19% 30.17 in 10.0 mi Calm Calm - N/A   Clear
2:53 PM 78.1 °F 30.9 °F 18% 30.16 in 10.0 mi NW 4.6 mph - N/A   Clear
3:53 PM 77.0 °F 30.9 °F 19% 30.16 in 10.0 mi NNW 8.1 mph - N/A   Clear
4:53 PM 71.1 °F 25.0 °F 18% 30.17 in 10.0 mi WNW 4.6 mph - N/A   Clear
5:53 PM 70.0 °F 25.0 °F 18% 30.18 in 10.0 mi WNW 3.5 mph - N/A   Clear
6:53 PM 63.0 °F 19.0 °F 18% 30.20 in 10.0 mi SW 5.8 mph - N/A   Clear
7:53 PM 64.9 °F 21.0 °F 19% 30.20 in 10.0 mi WSW 5.8 mph - N/A   Clear
8:53 PM 57.9 °F 15.1 °F 19% 30.20 in 10.0 mi Calm Calm - N/A   Clear
9:53 PM 61.0 °F 17.1 °F 18% 30.21 in 10.0 mi West 4.6 mph - N/A   Clear
10:53 PM 61.0 °F 16.0 °F 17% 30.20 in 10.0 mi NW 5.8 mph - N/A   Clear
11:53 PM 55.0 °F 12.0 °F 18% 30.19 in 10.0 mi NW 6.9 mph - N/A   Clear